Weather reports worldwide

Advertisment
Trier-Petrisberg, Germany (10609): temperature & dewpoint: 10.09.2019 17:00:00 - 16.09.2019 17:00:00 (CEST)Trier-Petrisberg, Germany (10609): temperature 5cm & temperature -5cm: 10.09.2019 17:00:00 - 16.09.2019 17:00:00 (CEST)Trier-Petrisberg, Germany (10609): temperature -20cm & temperature -100cm: 10.09.2019 17:00:00 - 16.09.2019 17:00:00 (CEST)Trier-Petrisberg, Germany (10609): wind speed & gusts: 10.09.2019 17:00:00 - 16.09.2019 17:00:00 (CEST)Trier-Petrisberg, Germany (10609): wind direction: 10.09.2019 17:00:00 - 16.09.2019 17:00:00 (CEST)Trier-Petrisberg, Germany (10609): reduced air pressure: 10.09.2019 17:00:00 - 16.09.2019 17:00:00 (CEST)Trier-Petrisberg, Germany (10609): visibility: 10.09.2019 17:00:00 - 16.09.2019 17:00:00 (CEST)Trier-Petrisberg, Germany (10609): sunshine duration: 10.09.2019 17:00:00 - 16.09.2019 17:00:00 (CEST)Trier-Petrisberg, Germany (10609): precipitation: 10.09.2019 17:00:00 - 16.09.2019 17:00:00 (CEST)
Date & Time tt [°C] td [°C] tt 5cm [°C] tt -5cm [°C] tt -20cm [°C] tt -100cm [°C] ff [km/h] ff [kn] fx [km/h] fx [kn] dd ppp [hPa] vv [km] sd [min] rr [mm]
16.09.2019 17:00:00 23,4 8,7 24,5 26,2 21,4 19,6 5 3 13 7 N 1018,1 70 0 0,0
16.09.2019 16:00:00 23,7 7,6 25,2 27,1 20,8 19,6 7 4 18 10 W 1018,3 70 1 0,0
16.09.2019 15:00:00 24,4 8,3 28,8 27,0 20,2 19,6 11 6 20 11 SW 1018,7 70 44 0,0
16.09.2019 14:00:00 22,1 9,0 26,6 24,7 19,7 19,6 6 3 16 9 SW 1019,7 70 37 0,0
16.09.2019 13:00:00 20,4 10,0 24,0 22,5 19,4 19,6 8 5 16 8 SSW 1020,3 70 28 0,0
16.09.2019 12:00:00 18,4 9,7 22,2 20,5 19,1 19,6 6 3 10 5 SSW 1020,9 70 38 0,0
16.09.2019 11:00:00 14,8 8,8 17,8 18,0 19,1 19,6 3 2 6 3 SW 1021,4 70 20 0,0
16.09.2019 10:00:00 12,2 8,7 13,8 16,3 19,3 19,6 5 3 9 5 S 1021,7 70 5 0,0
16.09.2019 09:00:00 10,9 8,1 11,7 15,4 19,5 19,5 3 2 7 4 NNW 1021,8 68 29 0,0
16.09.2019 08:00:00 9,5 7,9 8,8 15,1 19,8 19,5 4 2 11 6 N 1021,7 46 0 0,0
16.09.2019 07:00:00 9,9 8,1 8,1 15,6 20,2 19,5 6 3 10 5 NNE 1022,0 63 0 0,0
16.09.2019 06:00:00 10,3 8,3 9,5 16,1 20,5 19,5 7 4 16 9 NNE 1022,1 70 0 0,0
16.09.2019 05:00:00 10,6 8,4 8,5 16,4 20,9 19,5 4 2 16 8 N 1022,2 70 0 0,0
16.09.2019 04:00:00 11,1 8,7 9,4 17,1 21,3 19,4 9 5 14 8 N 1022,5 70 0 0,0
16.09.2019 03:00:00 11,7 8,9 9,6 17,8 21,7 19,4 5 3 12 7 N 1022,6 70 0 0,0
16.09.2019 02:00:00 13,3 9,0 11,0 18,7 22,1 19,4 7 4 15 8 NNE 1022,3 70 0 0,0
16.09.2019 01:00:00 14,3 9,0 11,2 19,6 22,5 19,4 6 3 9 5 NE 1022,4 70 0 0,0
16.09.2019 00:00:00 15,9 9,1 12,8 20,6 22,9 19,4 5 3 7 4 ENE 1022,4 70 0 0,0
15.09.2019 23:00:00 16,7 9,0 13,2 21,9 23,2 19,3 3 2 11 6 ENE 1022,5 70 0 0,0
15.09.2019 22:00:00 18,0 9,7 14,9 23,4 23,5 19,3 7 4 11 6 NNW 1022,2 70 0 0,0
15.09.2019 21:00:00 21,1 8,4 17,2 25,3 23,7 19,3 7 4 22 12 NNW 1021,6 70 0 0,0
15.09.2019 20:00:00 22,9 9,9 20,0 27,8 23,6 19,3 5 3 12 7 SW 1020,9 70 43 0,0
15.09.2019 19:00:00 25,7 8,8 26,5 30,1 23,3 19,4 6 3 16 9 WSW 1020,5 70 60 0,0
15.09.2019 18:00:00 26,8 8,2 29,0 31,4 22,7 19,4 9 5 23 13 SW 1020,6 70 60 0,0
15.09.2019 17:00:00 26,5 7,7 30,7 32,2 22,0 19,4 8 5 22 12 W 1021,1 70 60 0,0
15.09.2019 16:00:00 25,9 8,8 32,0 31,6 21,1 19,4 12 7 23 13 SSW 1021,9 69 60 0,0
15.09.2019 15:00:00 25,6 10,1 31,8 30,0 20,2 19,4 13 7 22 12 SSW 1022,7 66 60 0,0
15.09.2019 14:00:00 24,7 10,6 30,1 27,4 19,5 19,4 11 6 21 11 SSW 1023,4 70 60 0,0
15.09.2019 13:00:00 22,1 11,3 27,3 24,3 18,9 19,4 8 5 16 8 SW 1024,1 70 60 0,0
15.09.2019 12:00:00 19,7 10,5 24,1 20,8 18,6 19,4 6 3 11 6 WSW 1024,9 70 60 0,0
15.09.2019 11:00:00 16,0 9,9 20,5 18,1 18,5 19,4 5 3 9 5 W 1025,6 70 60 0,0
15.09.2019 10:00:00 13,3 9,2 16,2 15,4 18,6 19,4 3 2 6 3 SSW 1026,0 68 60 0,0
15.09.2019 09:00:00 10,3 8,9 9,8 14,3 18,9 19,3 2 1 6 3 E 1026,5 43 60 0,0
15.09.2019 08:00:00 9,2 8,2 8,4 14,3 19,2 19,3 4 2 10 5 N 1026,7 47 17 0,0
15.09.2019 07:00:00 9,3 8,2 7,3 14,8 19,5 19,3 5 3 8 5 NNE 1026,4 48 0 0,0
15.09.2019 06:00:00 9,7 8,8 7,6 15,3 19,9 19,3 2 1 10 5 SE 1026,2 37 0 0,0
15.09.2019 05:00:00 10,1 8,6 8,2 15,9 20,2 19,3 6 3 11 6 N 1026,6 59 0 0,0
15.09.2019 04:00:00 11,5 9,3 9,6 16,5 20,5 19,3 9 5 12 6 N 1026,8 70 0 0,0
15.09.2019 03:00:00 11,7 9,7 9,9 17,1 20,9 19,2 8 4 16 9 NNE 1027,0 70 0 0,0
15.09.2019 02:00:00 12,2 9,3 10,0 17,8 21,3 19,2 9 5 14 7 NNE 1027,4 70 0 0,0
15.09.2019 01:00:00 13,3 9,7 11,2 18,6 21,7 19,2 11 6 16 8 NNE 1027,8 70 0 0,0
15.09.2019 00:00:00 14,1 10,4 11,8 19,6 22,0 19,2 7 4 14 8 NNE 1027,8 70 0 0,0
14.09.2019 23:00:00 16,1 10,7 13,0 20,7 22,4 19,2 5 3 16 9 NE 1027,8 70 0 0,0
14.09.2019 22:00:00 16,1 10,1 13,6 22,1 22,7 19,2 11 6 19 11 NE 1028,5 70 0 0,0
14.09.2019 21:00:00 18,0 10,2 15,5 23,8 22,9 19,2 12 6 20 11 NNE 1028,3 65 0 0,0
14.09.2019 20:00:00 19,9 9,2 18,7 26,2 22,8 19,2 14 8 24 13 NNE 1027,8 70 43 0,0
14.09.2019 19:00:00 22,1 9,9 23,4 28,5 22,6 19,2 16 8 27 15 NNE 1027,4 70 60 0,0
14.09.2019 18:00:00 23,2 11,1 26,2 29,9 22,1 19,2 15 8 27 15 NNE 1027,5 70 60 0,0
14.09.2019 17:00:00 23,8 11,2 28,1 30,4 21,4 19,2 11 6 29 16 N 1027,8 70 60 0,0
14.09.2019 16:00:00 23,6 10,9 28,4 30,0 20,6 19,2 16 9 29 16 NNE 1028,5 70 60 0,0
14.09.2019 15:00:00 23,3 10,9 29,1 28,7 19,9 19,2 13 7 27 15 N 1029,2 70 60 0,0
14.09.2019 14:00:00 22,6 10,7 28,0 26,6 19,2 19,2 11 6 23 13 N 1029,8 70 60 0,0
14.09.2019 13:00:00 22,1 12,4 25,5 23,8 18,6 19,2 9 5 22 12 N 1030,6 70 60 0,0
14.09.2019 12:00:00 19,1 11,7 22,5 20,6 18,3 19,2 12 6 24 13 NNE 1031,8 70 60 0,0
14.09.2019 11:00:00 16,3 11,5 18,9 17,9 18,2 19,2 14 7 23 12 NNE 1032,3 70 60 0,0
14.09.2019 10:00:00 14,3 11,4 15,5 15,9 18,4 19,2 8 5 18 10 N 1032,4 42 57 0,0
14.09.2019 09:00:00 12,9 11,6 12,4 15,0 18,6 19,2 10 5 18 10 NNE 1032,9 27 56 0,0
14.09.2019 08:00:00 12,2 11,4 11,5 15,0 18,8 19,2 12 7 25 14 NNE 1033,2 18 0 0,0
14.09.2019 07:00:00 12,2 11,5 11,0 15,3 19,0 19,2 11 6 22 12 NNE 1032,5 12 0 0,0
14.09.2019 06:00:00 12,6 11,8 11,1 15,7 19,3 19,2 13 7 28 15 NNE 1032,4 16 0 0,0
14.09.2019 05:00:00 13,3 12,2 12,2 16,1 19,6 19,1 14 8 26 14 NNE 1032,6 23 0 0,0
14.09.2019 04:00:00 13,5 12,5 12,2 16,6 19,8 19,1 13 7 21 11 NNE 1032,9 30 0 0,0
14.09.2019 03:00:00 14,0 12,3 12,3 17,3 20,1 19,1 8 5 24 13 NNE 1033,0 38 0 0,0
14.09.2019 02:00:00 14,9 13,0 14,2 17,8 20,3 19,1 14 8 23 13 NNE 1033,0 44 0 0,0
14.09.2019 01:00:00 14,9 13,2 14,1 18,1 20,6 19,1 10 6 15 8 N 1033,2 68 0 0,0
14.09.2019 00:00:00 15,2 13,0 13,4 18,8 20,9 19,1 10 5 16 9 NNE 1033,2 70 0 0,0
13.09.2019 23:00:00 15,8 13,2 14,4 19,7 21,2 19,1 11 6 20 11 NNE 1033,0 70 0 0,0
13.09.2019 22:00:00 16,8 13,5 15,0 20,8 21,4 19,1 13 7 19 10 NNE 1032,6 70 0 0,0
13.09.2019 21:00:00 17,4 13,6 15,3 22,3 21,5 19,1 9 5 18 10 NNE 1032,4 70 0 0,0
13.09.2019 20:00:00 19,1 13,7 18,5 24,3 21,4 19,1 15 8 24 13 NE 1031,5 70 40 0,0
13.09.2019 19:00:00 21,3 13,0 22,0 26,1 21,1 19,1 7 4 14 7 NNW 1031,3 70 18 0,0
13.09.2019 18:00:00 21,7 13,4 23,1 27,4 20,6 19,1 4 2 16 9 WSW 1031,3 70 41 0,0
13.09.2019 17:00:00 21,9 13,1 26,8 27,4 20,0 19,1 9 5 16 9 W 1031,4 70 60 0,0
13.09.2019 16:00:00 21,2 12,9 27,8 25,3 19,6 19,1 7 4 14 8 NNE 1031,9 70 59 0,0
13.09.2019 15:00:00 19,3 13,5 20,9 22,5 19,3 19,1 5 3 14 8 NNW 1032,4 70 0 0,0
13.09.2019 14:00:00 19,3 13,7 21,7 21,9 19,0 19,1 7 4 17 9 WNW 1032,7 70 0 0,0
13.09.2019 13:00:00 19,1 12,9 21,4 21,4 18,8 19,1 5 3 14 7 NW 1032,6 70 14 0,0
13.09.2019 12:00:00 17,8 14,1 19,6 19,6 18,6 19,1 4 2 11 6 W 1033,0 70 0 0,0
13.09.2019 11:00:00 17,0 14,2 18,5 18,6 18,5 19,1 7 4 15 8 W 1032,9 70 0 0,0
13.09.2019 10:00:00 17,0 14,6 18,1 17,8 18,5 19,1 6 3 9 5 SW 1032,4 63 0 0,0
13.09.2019 09:00:00 15,4 13,9 16,0 16,9 18,6 19,1 6 4 12 6 SW 1032,0 46 0 0,0
13.09.2019 08:00:00 14,6 13,7 14,6 16,5 18,7 19,1 6 4 11 6 SW 1031,7 44 0 0,0
13.09.2019 07:00:00 14,1 13,4 14,2 16,3 18,9 19,1 6 4 12 7 S 1031,7 45 0 0,0
13.09.2019 06:00:00 13,3 12,7 13,5 16,0 19,1 19,0 8 4 14 7 SSW 1031,4 24 0 0,0
13.09.2019 05:00:00 13,2 12,5 12,2 16,2 19,4 19,0 7 4 12 6 SSW 1031,2 39 0 0,0
13.09.2019 04:00:00 13,9 13,0 12,0 16,7 19,6 19,0 5 3 10 6 SSE 1031,2 70 0 0,0
13.09.2019 03:00:00 14,1 12,9 12,6 17,2 19,9 19,0 6 4 9 5 SSW 1031,4 70 0 0,0
13.09.2019 02:00:00 14,8 12,9 12,9 17,8 20,1 19,0 5 3 10 5 SE 1031,3 70 0 0,0
13.09.2019 01:00:00 15,3 13,2 13,7 18,5 20,3 19,0 8 5 14 8 SSW 1031,2 70 0 0,0
13.09.2019 00:00:00 16,4 13,2 14,8 19,5 20,5 19,0 8 4 10 5 ESE 1030,8 70 0 0,0
12.09.2019 23:00:00 18,3 13,5 18,0 20,1 20,8 19,0 7 4 13 7 SW 1030,9 70 0 0,0
12.09.2019 22:00:00 18,4 13,7 17,1 20,7 20,9 19,0 10 6 14 8 SW 1030,8 70 0 0,0
12.09.2019 21:00:00 18,6 13,6 16,2 21,9 21,0 19,0 4 2 16 9 SSW 1030,7 70 0 0,0
12.09.2019 20:00:00 20,7 13,5 19,3 23,8 20,9 19,0 10 6 24 13 WSW 1029,8 70 37 0,0
12.09.2019 19:00:00 22,1 13,2 23,1 25,6 20,6 19,0 14 8 26 14 WSW 1029,3 70 50 0,0
12.09.2019 18:00:00 23,2 12,3 25,4 26,6 20,2 19,0 17 9 28 15 SW 1029,1 70 47 0,0
12.09.2019 17:00:00 24,0 12,8 28,3 26,5 19,6 19,0 19 10 34 19 SW 1029,2 70 47 0,0
12.09.2019 16:00:00 22,9 12,5 27,6 25,3 19,1 19,0 19 10 34 18 WSW 1029,7 70 50 0,0
12.09.2019 15:00:00 22,5 15,2 26,3 22,2 18,8 19,0 18 10 31 17 SSW 1029,9 70 18 0,0
12.09.2019 14:00:00 19,5 15,2 21,5 21,6 18,4 19,0 15 8 25 14 SW 1030,2 70 5 0,0
12.09.2019 13:00:00 19,3 15,2 21,5 20,7 18,2 19,0 12 7 27 15 SW 1030,3 70 7 0,0
12.09.2019 12:00:00 18,6 15,0 20,5 19,3 18,0 19,1 14 8 24 13 SSW 1030,3 70 0 0,0
12.09.2019 11:00:00 17,5 14,7 18,7 17,9 17,9 19,1 15 8 25 13 SSW 1029,9 70 0 0,0
12.09.2019 10:00:00 16,3 14,5 16,6 17,2 17,9 19,1 13 7 22 12 SW 1029,6 70 0 0,0
12.09.2019 09:00:00 15,2 14,2 15,5 16,6 18,0 19,1 10 6 16 9 SSW 1029,1 39 0 0,0
12.09.2019 08:00:00 14,4 13,4 14,6 16,4 18,1 19,1 8 5 14 8 SSW 1028,8 23 0 0,0
12.09.2019 07:00:00 14,0 12,9 14,1 16,3 18,1 19,1 8 4 11 6 S 1028,2 51 0 0,0
12.09.2019 06:00:00 13,9 12,4 13,8 16,4 18,2 19,1 8 4 19 11 SW 1027,9 70 0 0,1
12.09.2019 05:00:00 14,2 11,8 13,7 16,6 18,3 19,1 15 8 31 17 SW 1027,9 11 0 0,1
12.09.2019 04:00:00 16,2 10,4 15,7 16,8 18,4 19,1 9 5 21 11 S 1027,3 70 0 0,0
12.09.2019 03:00:00 15,6 9,8 15,4 16,9 18,5 19,1 8 4 11 6 S 1027,0 70 0 0,0
12.09.2019 02:00:00 15,6 9,8 15,1 17,0 18,6 19,1 8 4 26 14 S 1026,8 70 0 0,0
12.09.2019 01:00:00 16,7 8,4 16,3 17,3 18,8 19,1 10 6 18 10 WSW 1026,5 70 0 0,0
12.09.2019 00:00:00 16,4 9,1 15,4 17,6 18,9 19,1 9 5 13 7 SSW 1026,1 70 0 0,0
11.09.2019 23:00:00 17,1 8,6 16,2 17,9 19,0 19,1 8 4 18 10 S 1026,0 70 0 0,0
11.09.2019 22:00:00 17,0 9,0 16,3 18,3 19,1 19,1 12 6 16 9 SSW 1025,7 70 0 0,0
11.09.2019 21:00:00 17,3 9,7 16,9 18,8 19,1 19,2 8 4 11 6 SW 1025,4 70 0 0,0
11.09.2019 20:00:00 17,7 9,4 17,3 19,3 19,1 19,2 8 4 14 7 SW 1024,7 70 0 0,0
11.09.2019 19:00:00 18,2 9,0 18,5 19,9 19,1 19,2 9 5 17 9 SSW 1024,1 70 0 0,0
11.09.2019 18:00:00 18,2 8,2 18,8 20,3 19,0 19,2 10 5 29 15 SW 1024,4 70 0 0,0
11.09.2019 17:00:00 18,5 8,8 18,1 21,3 18,8 19,2 14 7 27 14 W 1024,1 70 0 0,0
11.09.2019 16:00:00 19,2 7,0 20,2 22,5 18,4 19,3 18 10 36 20 WSW 1023,7 70 0 0,0
11.09.2019 15:00:00 19,9 8,1 22,1 22,6 17,9 19,3 18 10 33 18 SW 1023,4 70 1 0,0
11.09.2019 14:00:00 19,4 6,9 22,7 21,7 17,4 19,3 18 10 30 16 SW 1023,5 70 8 0,0
11.09.2019 13:00:00 18,5 7,9 21,1 20,3 16,9 19,3 14 7 21 11 SW 1023,8 70 13 0,0
11.09.2019 12:00:00 17,5 8,0 20,1 18,4 16,6 19,3 9 5 14 7 SSW 1024,1 70 11 0,0
11.09.2019 11:00:00 14,9 6,6 17,7 15,7 16,4 19,3 7 4 11 6 SSW 1024,2 70 56 0,0
11.09.2019 10:00:00 11,3 6,4 13,5 12,9 16,6 19,3 5 3 9 5 SW 1024,3 70 60 0,0
11.09.2019 09:00:00 7,8 6,0 7,3 11,6 16,8 19,3 3 1 5 3 S 1024,5 63 47 0,0
11.09.2019 08:00:00 6,1 5,4 5,8 11,4 17,1 19,3 4 2 7 4 WSW 1024,4 48 22 0,0
11.09.2019 07:00:00 5,7 4,5 4,4 11,7 17,4 19,3 5 3 8 4 NNW 1024,2 70 0 0,0
11.09.2019 06:00:00 5,9 4,5 4,8 12,1 17,8 19,3 5 3 6 4 N 1023,3 70 0 0,0
11.09.2019 05:00:00 6,4 4,6 4,7 12,6 18,1 19,3 6 4 9 5 N 1023,1 70 0 0,0
11.09.2019 04:00:00 7,1 5,2 5,0 13,2 18,5 19,3 0 0 8 4 N 1023,0 70 0 0,0
11.09.2019 03:00:00 8,0 5,1 5,9 13,8 18,9 19,3 4 2 7 4 E 1022,6 70 0 0,0
11.09.2019 02:00:00 8,2 4,7 6,5 14,5 19,2 19,3 5 3 8 4 NNE 1022,4 70 0 0,0
11.09.2019 01:00:00 9,3 5,0 7,0 15,3 19,6 19,3 5 3 7 4 E 1022,2 70 0 0,0
11.09.2019 00:00:00 10,0 4,7 8,1 16,3 20,0 19,3 4 2 7 4 ENE 1022,0 70 0 0,0
10.09.2019 23:00:00 11,4 5,4 9,0 17,4 20,4 19,3 6 3 9 5 N 1021,5 70 0 0,0
10.09.2019 22:00:00 11,9 4,6 9,8 18,8 20,8 19,3 3 2 7 4 E 1020,9 70 0 0,0
10.09.2019 21:00:00 14,7 3,5 11,5 20,7 20,9 19,3 3 1 7 4 ENE 1020,1 70 0 0,0
10.09.2019 20:00:00 17,0 2,3 14,4 23,2 20,9 19,4 4 2 10 6 N 1019,1 70 53 0,0
10.09.2019 19:00:00 19,3 2,0 20,9 25,2 20,7 19,4 7 4 16 9 NNE 1018,3 70 60 0,0
10.09.2019 18:00:00 19,8 2,0 22,3 26,5 20,2 19,4 8 5 18 10 N 1018,1 70 60 0,0
10.09.2019 17:00:00 20,0 4,3 24,3 26,6 19,6 19,4 12 6 20 11 N 1017,9 70 49 0,0

tt = temperature
td = dewpoint
tt 5cm = temperature 5cm
tt -5cm = temperature -5cm
tt -20cm = temperature -20cm
tt -100cm = temperature -100cm
ff = wind speed
fx = gusts
dd = wind direction
ppp = reduced air pressure
vv = visibility
sd = sunshine duration
rr = precipitation

Next stations